sat.trackr.live / text

‹ back to catalog

QZS-4 (QZSS/PRN 195)

NORAD 42965 · 2017-062A

PAYLOAD ACTIVE UNKNOWN

§ Identity

Operator
Country
JPN
Launch date
2017-10-09
Launch site
TANSC
Launch vehicle
Mass (kg)
RCS (m²)

Purposes: comms, nav

External: N2YO · Heavens-Above · Gunter

§ Orbital elements

Epoch: 2026-09-19T12:15:07.014240Z

Period
1,436.08 min
Inclination
40.0464°
Eccentricity
0.0750064
Mean motion
1.00273309 rev/d
Perigee alt
32,623.6 km
Apogee alt
38,948.8 km
Semi-major
42,164.3 km
B*
0.0000e+0
RAAN
342.2818°
Arg perigee
269.7658°
Mean anomaly
70.7698°
Rev number
3,274

§ Raw data

QZS-4 (QZSS/PRN 195)1 42965U 17062A   26262.51049785 -.00000319  00000+0  00000+0 0  99912 42965  40.0464 342.2818 0750064 269.7658  70.7698  1.00273309 32747

JSON: /api/v1/satellites/42965 · /tle

For live sub-satellite position, see the globe view (requires WebGL).

§ Visibility from observer

Set your observer location to see the next 7 days of passes ≥ 10°. The values pass through the URL so the page stays shareable.

No JS? Fill the form by hand. The geolocation button needs JavaScript.